This is the latest recevied weather packets stored in our database for station/object KC3SOZ. If no packets are shown the sender has not sent any weather packets the latest 10 day(s).
| Time | Temp. | Humidity | Pressure | Rain* | Wind** | Luminosity | Snow |
|---|---|---|---|---|---|---|---|
| 1777897844 | 7.22° C | 95% | 1014.7 hPa | 0 mm | - | 133 W/m² | - |
| 1777897540 | 6.67° C | 95% | 1014.5 hPa | 0 mm | - | 121 W/m² | - |
| 1777897235 | 6.67° C | 94% | 1014.7 hPa | 0 mm | - | 114 W/m² | - |
| 1777896932 | 6.67° C | 95% | 1014.6 hPa | 0 mm | - | 95 W/m² | - |
| 1777896629 | 6.11° C | 96% | 1014.7 hPa | 0 mm | - | 90 W/m² | - |
| 1777896326 | 5.56° C | 95% | 1014.8 hPa | 0 mm | - | 101 W/m² | - |
| 1777896025 | 5.56° C | 95% | 1014.7 hPa | 0 mm | - | 99 W/m² | - |
| 1777895722 | 5° C | 96% | 1014.9 hPa | 0 mm | - | 97 W/m² | - |
| 1777895419 | 5° C | 96% | 1014.5 hPa | 0 mm | - | 93 W/m² | - |
| 1777895117 | 5° C | 96% | 1014.7 hPa | 0 mm | - | 87 W/m² | - |
| 1777894814 | 5° C | 97% | 1014.6 hPa | 0 mm | - | 92 W/m² | - |
| 1777894510 | 4.44° C | 96% | 1014.6 hPa | 0 mm | - | 84 W/m² | - |
| 1777894208 | 3.89° C | 97% | 1014.7 hPa | 0 mm | - | 89 W/m² | - |
| 1777893904 | 3.33° C | 99% | 1014.4 hPa | 0 mm | - | 95 W/m² | - |
| 1777893601 | 3.33° C | 99% | 1014.7 hPa | 0 mm | - | 70 W/m² | - |
| 1777893297 | 2.78° C | 99% | 1014.7 hPa | 0 mm | - | 59 W/m² | - |
| 1777892993 | 2.22° C | 99% | 1014.6 hPa | 0 mm | - | 53 W/m² | - |
| 1777892691 | 1.67° C | 99% | 1014.6 hPa | 0 mm | - | 47 W/m² | - |
| 1777892386 | 1.11° C | 99% | 1014.5 hPa | 0 mm | - | 41 W/m² | - |
| 1777892083 | 0.56° C | 99% | 1014.5 hPa | 0 mm | - | 33 W/m² | - |
| 1777891780 | 0.56° C | 99% | 1014.7 hPa | 0 mm | - | 31 W/m² | - |
| 1777891477 | 0.56° C | 99% | 1014.6 hPa | 0 mm | - | 28 W/m² | - |
| 1777891173 | 0.56° C | 99% | 1014.6 hPa | 0 mm | - | 25 W/m² | - |
| 1777890872 | 0.56° C | 99% | 1014.8 hPa | 0 mm | - | 22 W/m² | - |
| 1777890569 | 0° C | 99% | 1014.6 hPa | 0 mm | - | 18 W/m² | - |
* Rain latest hour (hover to see other rain measurements)
** Current wind speed in m/s (hover to see current wind gust speed)